This is the latest recevied weather packets stored in our database for station/object KC3UTO. If no packets are shown the sender has not sent any weather packets the latest 1 day(s).
| Time | Temp. | Humidity | Pressure | Rain* | Wind** | Luminosity | Snow |
|---|---|---|---|---|---|---|---|
| 1778056820 | 18.89° C | 67% | 1008.1 hPa | 0 mm | 0.89 m/s, 146° | 0 W/m² | - |
| 1778056517 | 18.89° C | 66% | 1008.1 hPa | 0 mm | 1.34 m/s, 321° | 0 W/m² | - |
| 1778056215 | 18.89° C | 66% | 1008 hPa | 0 mm | 0.45 m/s, 254° | 0 W/m² | - |
| 1778055911 | 19.44° C | 66% | 1008.3 hPa | 0 mm | 0.89 m/s, 245° | 0 W/m² | - |
| 1778055607 | 18.89° C | 66% | 1008.1 hPa | 0 mm | 0.89 m/s, 149° | 0 W/m² | - |
| 1778055305 | 19.44° C | 65% | 1007.9 hPa | 0 mm | 2.24 m/s, 218° | 0 W/m² | - |
| 1778055003 | 19.44° C | 65% | 1008.1 hPa | 0 mm | 0.45 m/s, 279° | 0 W/m² | - |
| 1778054700 | 19.44° C | 65% | 1008.1 hPa | 0 mm | 0.89 m/s, 17° | 0 W/m² | - |
| 1778054397 | 18.89° C | 65% | 1008 hPa | 0 mm | 0.89 m/s, 85° | 0 W/m² | - |
| 1778054095 | 18.89° C | 65% | 1008.1 hPa | 0 mm | 0 m/s | 0 W/m² | - |
| 1778053791 | 18.89° C | 64% | 1008.2 hPa | 0 mm | 0 m/s | 0 W/m² | - |
| 1778053488 | 18.89° C | 64% | 1008.2 hPa | 0 mm | 0.89 m/s, 46° | 0 W/m² | - |
| 1778053185 | 18.89° C | 64% | 1007.9 hPa | 0 mm | 0.89 m/s, 81° | 0 W/m² | - |
| 1778052883 | 18.89° C | 63% | 1008.1 hPa | 0 mm | 0.45 m/s, 287° | 0 W/m² | - |
| 1778052580 | 18.89° C | 63% | 1008.3 hPa | 0 mm | 0.45 m/s, 223° | 0 W/m² | - |
| 1778052277 | 18.89° C | 63% | 1008.3 hPa | 0 mm | 1.34 m/s, 266° | 0 W/m² | - |
| 1778051975 | 18.89° C | 63% | 1008.2 hPa | 0 mm | 2.24 m/s, 240° | 0 W/m² | - |
| 1778051673 | 18.89° C | 63% | 1008.3 hPa | 0 mm | 0.89 m/s, 74° | 0 W/m² | - |
| 1778051370 | 18.89° C | 62% | 1008.2 hPa | 0 mm | 0 m/s | 0 W/m² | - |
| 1778051067 | 18.89° C | 62% | 1008.4 hPa | 0 mm | 0.45 m/s, 302° | 0 W/m² | - |
| 1778050764 | 19.44° C | 61% | 1008.2 hPa | 0 mm | 0.89 m/s, 72° | 0 W/m² | - |
| 1778050461 | 19.44° C | 61% | 1008.3 hPa | 0 mm | 0 m/s | 0 W/m² | - |
| 1778050158 | 19.44° C | 61% | 1008.3 hPa | 0 mm | 0 m/s | 0 W/m² | - |
| 1778049854 | 19.44° C | 60% | 1008.4 hPa | 0 mm | 0 m/s | 0 W/m² | - |
| 1778049551 | 19.44° C | 61% | 1008.5 hPa | 0 mm | 0.45 m/s, 83° | 0 W/m² | - |
* Rain latest hour (hover to see other rain measurements)
** Current wind speed in m/s (hover to see current wind gust speed)